Regional Weather Roundup
Issued by NWS

Home | Current Version | Previous Version | Graphics & Text | Print | Product List | Glossary On
Versions: 1 2 3 4 5 6 7 8 9 10 11 12 13 14 15 16 17 18 19 20 21 22 23 24 25 26 27 28 29 30 31 32 33 34 35 36 37 38 39 40 41 42 43 44 45 46 47 48 49 50
000
ASUS43 KLSX 281557
RWRMO

WEATHER SUMMARY FOR MISSOURI
NATIONAL WEATHER SERVICE SPRINGFIELD MO
1100 AM CDT WED SEP 28 2016

NOTE: "FAIR" INDICATES FEW OR NO CLOUDS BELOW 12,000 FEET WITH NO
       SIGNIFICANT WEATHER AND/OR OBSTRUCTIONS TO VISIBILITY.
       CURRENT SKY AND/OR WEATHER CONDITIONS ARE NOT AVAILABLE FOR
       CHILLICOTHE AND FARMINGTON.

MOZ001>031-035>038-043-044-053-054-281700-
...NORTHERN AND WESTERN MISSOURI...

CITY           SKY/WX    TMP DP  RH WIND       PRES   REMARKS
KANSAS CTY INT MOSUNNY   59  45  59 N16       30.09R
LEE`S SUMMIT   SUNNY     61  47  59 N14       30.07R
ST JOSEPH      SUNNY     60  46  59 N10G18    30.11R
CHILLICOTHE      N/A     58  46  64 N12G20    30.09R
KIRKSVILLE     MOSUNNY   58  44  60 N14G25    30.05R

$$
MOZ066>068-077>081-088>096-101>105-281700-
...SOUTHWEST MISSOURI...

CITY           SKY/WX    TMP DP  RH WIND       PRES   REMARKS
SPRINGFIELD    SUNNY     71  50  47 N14       29.98R
JOPLIN         SUNNY     71  51  49 N13       30.02R
BRANSON        SUNNY     72  52  49 NW12      29.98R

$$
MOZ032>034-039>042-045>050-055>058-069>072-281700-
...CENTRAL MISSOURI...

CITY           SKY/WX    TMP DP  RH WIND       PRES   REMARKS
COLUMBIA       NOT AVBL
JEFFERSON CITY SUNNY     64  46  52 NW12      29.99R
ROLLA          SUNNY     66  45  46 N13       29.96R
SEDALIA        SUNNY     65  45  48 N15G24    30.04R

$$
MOZ051-052-059>065-281700-
...EAST CENTRAL MISSOURI...

CITY           SKY/WX    TMP DP  RH WIND       PRES   REMARKS
ST LOUIS INTL  MOSUNNY   65  46  50 N17       29.93R

$$
MOZ072>076-082>087-097>100-106>115-281700-
...SOUTH CENTRAL AND SOUTHEAST MISSOURI...

CITY           SKY/WX    TMP DP  RH WIND       PRES   REMARKS
CAPE GIRARDEAU PTSUNNY   70  56  61 NW7       29.86R
POPLAR BLUFF   SUNNY     75  55  49 NW10      29.87S
WEST PLAINS    SUNNY     73  54  51 NW8       29.94R

$$


USA.gov is the U.S. government's official web portal to all federal, state and local government web resources and services.